Other Public Products
Issued by NWS Grand Forks, ND

Home | Current Version | Previous Version | Graphics & Text | Print | Product List | Glossary On
Versions: 1 2 3 4 5 6 7 8 9 10 11 12 13 14 15 16 17 18 19 20 21 22 23 24 25 26 27 28 29 30 31 32 33 34 35 36 37 38 39 40 41 42 43 44 45 46 47 48 49 50
000
FPUS83 KFGF 051531
OPUFGF
PRAIRIE TO PINES WEATHER ROUNDUP
NATIONAL WEATHER SERVICE EASTERN NORTH DAKOTA/GRAND FORKS ND
1000 AM CDT SUN JUL 05 2015

 **SATELLITE DATA USED TO AUGMENT SKY COVER AT AUTOMATED STATIONS**
 *****  WEATHER ACROSS EASTERN NORTH DAKOTA  *****

CITY           SKY/WX    TMP DP  RH WIND       PRES   REMARKS
GRAND FORKS    CLOUDY    74  68  81 S10       29.73R
GRAND FORKS AF PTSUNNY   73  68  85 S9        29.74R
GRAND CITY NWS   N/A     73 N/A N/A S6          N/A
BUXTON         NOT AVBL
DEVILS LAKE    CLOUDY    64  61  88 NW22G29   29.82R THUNDER
FARGO          SUNNY     77  67  71 S10G18    29.73F
WAHPETON ARPT  SUNNY     77  64  65 S9        29.76R
$$

 *****  WEATHER ACROSS CENTRAL AND WESTERN NORTH DAKOTA  *****

CITY           SKY/WX    TMP DP  RH WIND       PRES   REMARKS
JAMESTOWN      CLOUDY    75  68  78 SW5       29.77R
BISMARCK       CLOUDY    69  63  81 N14G26    29.85R
MINOT          CLOUDY    65  62  90 N5        29.83S FOG
MINOT AFB      CLOUDY    66  66 100 E2        29.82S
GARRISON         N/A     64  62  93 NE10      29.79F
WILLISTON      CLOUDY    69  60  73 N18       29.89S HAZE
DICKINSON      CLOUDY    65  61  87 E10       29.85F
HETTINGER      TSTM      64  60  87 N21G31    29.87R FOG
$$

 *****  OTHER OBSERVATIONS NORTHEAST NORTH DAKOTA  *****

CITY           SKY/WX    TMP DP  RH WIND       PRES   REMARKS
WALHALLA       FAIR      66  66 100 MISG      29.79R
LANGDON        DRIZZLE   64  64 100 N5        29.83R
CAVALIER       LGT RAIN  64  64 100 N3        29.78R
GRAFTON        CLOUDY    66  66 100 N12G18    29.73F FOG
CANDO          HVY RAIN  63  63 100 NE14      29.79F VSB 3/4
FORT TOTTEN      N/A     65  64  96 N6        29.95
ROLLA          LGT RAIN  63  63 100 E8        29.85F VSB 1
RUGBY          NOT AVBL
 ***** THE ABOVE OBSERVATIONS ARE NON NWS ARE NOT QUALITY
        CONTROLLED AND MAY MIS-REPORT RAIN FOR SNOW...
$$

 *****  OTHER OBSERVATIONS SOUTHEAST NORTH DAKOTA *****

CITY           SKY/WX    TMP DP  RH WIND       PRES   REMARKS
COOPERSTOWN    NOT AVBL
VALLEY CITY    FAIR      75  68  78 SW20G25   29.76S
OAKES            N/A     77  73  88 S18G24    29.76S
GWINNER        FAIR      81  68  65 SW22G31   29.76R
SHEYENNE NWR     N/A     79  69  72 S10       29.95S
BUFFALO        NOT AVBL
WYNDMERE       NOT AVBL
 ***** THE ABOVE OBSERVATIONS ARE NON NWS ARE NOT QUALITY
       CONTROLLED AND MAY MIS-REPORT RAIN FOR SNOW...
$$

  *****  WEATHER ACROSS NORTHERN MINNESOTA  *****

CITY           SKY/WX    TMP DP  RH WIND       PRES   REMARKS
FLAG ISLAND    NOT AVBL
WARROAD        CLOUDY    68  64  88 CALM      29.77S
ROSEAU         CLOUDY    68  63  83 CALM      29.77S
HALLOCK        CLOUDY    68  66  94 N6        29.75S
THF RVR FALLS  PTSUNNY   72  66  83 N10       29.78R
HALSTAD        NOT AVBL
FOSSTON        MOSUNNY   75  66  73 S14       29.76R
BAUDETTE       MOSUNNY   73  65  75 N6        29.78R
WASKISH        CLOUDY    73  68  83 SE5       29.75F
CROOKSTON      MOSUNNY   75  70  83 SW8       29.75R
$$
  *****  WEATHER ACROSS CENTRAL AND WEST MINNESOTA  *****

CITY           SKY/WX    TMP DP  RH WIND       PRES   REMARKS
BEMIDJI        CLOUDY    73  66  78 S14       29.77F
PARK RAPIDS    MOSUNNY   76  64  66 S15       29.79F
WADENA         SUNNY     75  64  69 S10       29.79F
DETROIT LAKES  SUNNY     77  64  65 S10       29.79S
MOORHEAD       SUNNY     77  66  69 S10       29.76R
FERGUS FALLS   SUNNY     75  66  73 S13       29.76F
ELBOW LAKE     FAIR      76  67  73 S16       29.76F
MORRIS MN      SUNNY     79  66  65 SE13      29.77F
STAPLES        MOSUNNY   75  63  64 S13       29.82S
WHEATON        SUNNY     75  64  69 S10       29.77S
$$
  *****  WEATHER ELSEWHERE ACROSS MINNESOTA  *****

CITY           SKY/WX    TMP DP  RH WIND       PRES   REMARKS
DULUTH         PTSUNNY   71  61  70 SW12      29.90F
INTRNTL FALLS  MOSUNNY   74  67  78 S6        29.80F HAZE
ELY            PTSUNNY   73  61  64 S9        29.86F
CLOQUET        PTSUNNY   73  63  68 S12       29.87F
BRAINERD       PTSUNNY   75  63  66 S14       29.83F
HIBBING        CLOUDY    73  64  73 S10       29.85F
ALEXANDRIA     MOSUNNY   75  64  68 S12       29.83F
SAINT CLOUD    PTSUNNY   73  63  70 S13       29.86F
MINNEAPOLIS    CLOUDY    75  61  61 S10       29.91F
$$

  *****  WEATHER ACROSS SOUTH DAKOTA  *****

CITY           SKY/WX    TMP DP  RH WIND       PRES   REMARKS
SIOUX FALLS    MOSUNNY   73  67  81 SE13      29.85F
BROOKINGS      SUNNY     75  66  73 S18       29.83F
WATERTOWN      MOSUNNY   77  65  66 S15G24    29.79F
HURON          SUNNY     76  66  71 S21G33    29.75F
SISSETON         N/A     80  66  62 S20       29.73F
ABERDEEN       SUNNY     79  68  69 W23G29    29.75R
MITCHELL       SUNNY     79  68  69 S15G24    29.80F
PIERRE         SUNNY     77  69  76 SE16      29.72S
MOBRIDGE       PTSUNNY   79  71  76 VRB6      29.76R
RAPID CITY     SUNNY     78  66  66 NW13G21   29.80R
$$

  *****  SOME WEATHER IN NEARBY STATES *****

CITY           SKY/WX    TMP DP  RH WIND       PRES   REMARKS
GLASGOW MT     MOSUNNY   65  49  56 N21G28    30.02R
GREAT FALLS MT LGT RAIN  52  51  97 N9        30.16R FOG
CHEYENNE WY    SUNNY     80  49  33 W24G32    30.03S
SCOTTSBLUFF NE MOSUNNY   78  64  61 CALM      29.87S
OMAHA NE       CLOUDY    71  65  81 SE8       29.95R
DES MOINES IA  CLOUDY    75  66  73 S7        30.00R
DAVENPORT IA   SUNNY     75  64  68 S7        30.07S
CHICAGO IL     SUNNY     77  60  55 SW6       30.08S
EAU CLAIRE WI  MOSUNNY   76  62  62 S12       29.98F
LA CROSSE WI   SUNNY     75  63  66 S8        30.01S
$$

  *****  SOME NATIONAL WEATHER *****

CITY           SKY/WX    TMP DP  RH WIND       PRES   REMARKS
LA GUARDIA NY  PTSUNNY   77  61  57 N5        30.12S
RALEIGH NC     PTSUNNY   83  72  69 SW7       30.13S
ATLANTA GA     PTSUNNY   75  66  73 SW7       30.15F
NEW ORLEANS LA CLOUDY    85  75  72 SW9       30.12R HX  93
OKLAHOMA CITY  MOSUNNY   84  73  69 SW13      30.00R HX  90
ALBUQUERQUE NM PTSUNNY   73  57  57 SW6       30.16S
SALT LAKE CITY CLOUDY    75  62  64 N3        30.03R
LOS ANGELES CA CLOUDY    64  60  87 W8        29.99R
BOISE ID       CLOUDY    80  53  39 N6        29.89R
SEATTLE WA     MOSUNNY   73  54  51 W5        29.85R
$$

*** WEATHER ACROSS MANITOBA...SASKATCHEWAN AND ONTARIO ***
                ***ONTARIO***

CITY           SKY/WX    TMP DP  RH WIND       PRES   REMARKS
GERALDTON      CLOUDY    66  59  77 SW12      29.89F
THUNDER BAY    CLOUDY    63  55  77 E8        29.92F
SIOUX LOOKOUT  PTSUNNY   72  64  78 S6        29.82S
TORONTO        MOSUNNY   73  57  56 SE7       30.12S
BIG TROUT LK   SUNNY     64  57  77 W9        29.69F HAZE
PICKLE LAKE    PTSUNNY   70  61  73 W12G17    29.79S
DRYDEN         MOSUNNY   72  64  78 S8        29.81F
KENORA         CLOUDY    68  64  88 CALM      29.80F
$$
                *** MANITOBA***

CITY           SKY/WX    TMP DP  RH WIND       PRES   REMARKS
BRANDON        CLOUDY    63  61  94 N6        29.83S FOG
DAUPHIN        MOSUNNY   63  57  82 NW6       29.82F HAZE
ISLAND LAKE    CLOUDY    61  57  88 W7        29.71F SMOKE
PILOT MOUND      N/A     64  61  88 N8          N/A
THE PAS        CLOUDY    55  45  67 N12G18    29.83R
THOMPSON       LGT RAIN  48  43  81 W9        29.74S
WINNIPEG       CLOUDY    66  64  94 N8        29.78S FOG
LYNN LAKE      LGT RAIN  45  43  93 N13G23    29.87R
CHURCHILL      LGT RAIN  39  39 100 NE31G39   29.71R FOG
$$
                ***SASKATCHEWAN***

CITY           SKY/WX    TMP DP  RH WIND       PRES   REMARKS
ESTEVAN        CLOUDY    63  61  94 W8        29.89S SMOKE
KINDERSLEY     PTSUNNY   57  52  82 NW10G20   30.05F
LLOYDMINSTER   CLOUDY    55  48  76 NW10G17   30.06R SMOKE
PRINCE ALBERT  CLOUDY    57  50  77 NW14      29.94R SMOKE
REGINA         CLOUDY    61  55  82 NW17G24   29.95R SMOKE
YORKTON        CLOUDY    59  52  77 W5        29.89S HAZE



USA.gov is the U.S. government's official web portal to all federal, state and local government web resources and services.